GW2897 Weather Reports


Display with metric or nautical units.
time (UTC)temp
F
wind
direction
speed
MPH
gust
MPH
rain 1hr
in
rain 24hr
in
rain mn
in
humidity
%
barometer
mb
20260507210905 77 268 5.0 12.0 0.00 1.82 1.09 75 1007.7
20260507210005 78 239 4.0 11.0 0.00 1.82 1.09 73 1007.8
20260507205404 77 272 4.0 10.0 0.00 1.82 1.09 77 1007.8
20260507204537 77 276 3.0 10.0 0.00 1.82 1.09 76 1007.8
20260507203604 77 275 5.0 14.0 0.00 1.82 1.09 75 1008.1
20260507202725 77 256 4.0 13.0 0.00 1.82 1.09 75 1008.1
20260507201814 77 261 5.0 13.0 0.00 1.82 1.09 76 1007.9
20260507200904 77 269 5.0 14.0 0.00 1.82 1.09 75 1008.0
20260507200005 76 268 6.0 12.0 0.00 1.82 1.09 77 1008.2
20260507195425 76 267 6.0 12.0 0.00 1.82 1.09 77 1008.5
20260507194505 76 279 5.0 11.0 0.00 1.82 1.09 79 1008.7
20260507193604 75 268 5.0 12.0 0.00 1.82 1.09 79 1008.5
20260507192704 75 280 6.0 12.0 0.00 1.82 1.09 80 1008.7
20260507191847 74 286 5.0 15.0 0.00 1.82 1.09 80 1008.8
20260507190904 74 252 4.0 9.0 0.00 1.82 1.09 83 1008.8
20260507190005 73 273 4.0 10.0 0.00 1.82 1.09 84 1008.9
20260507185404 73 256 4.0 10.0 0.00 1.82 1.09 83 1008.9
20260507184504 73 263 3.0 9.0 0.00 1.82 1.09 83 1008.9
20260507183604 73 271 3.0 9.0 0.00 1.82 1.09 85 1008.8
20260507182704 73 276 3.0 8.0 0.00 1.82 1.09 85 1008.8
20260507181855 72 276 4.0 8.0 0.00 1.82 1.09 86 1008.7
20260507180925 72 254 3.0 8.0 0.00 1.82 1.09 85 1008.5
20260507180004 72 269 4.0 8.0 0.00 1.82 1.09 86 1008.9
20260507175404 72 280 4.0 8.0 0.00 1.82 1.09 87 1008.8
20260507174504 72 273 3.0 8.0 0.00 1.82 1.09 88 1008.9
20260507173625 72 224 2.0 8.0 0.00 1.82 1.09 88 1009.0
20260507172725 72 245 2.0 6.0 0.00 1.82 1.09 89 1008.9
20260507171838 71 281 3.0 7.0 0.00 1.82 1.09 90 1008.7
20260507170904 70 282 2.0 5.0 0.00 1.82 1.09 90 1008.5
20260507170004 70 297 3.0 9.0 0.00 1.82 1.09 92 1008.7
20260507165419 69 296 3.0 9.0 0.00 1.82 1.09 94 1008.7
20260507164505 68 289 3.0 7.0 0.00 1.82 1.09 95 1009.3
20260507163604 68 256 2.0 6.0 0.01 1.82 1.09 95 1009.3
20260507162704 68 268 2.0 6.0 0.04 1.82 1.09 96 1009.6
20260507161804 68 279 1.0 6.0 0.05 1.82 1.09 96 1009.8
20260507160904 68 257 2.0 7.0 0.05 1.82 1.09 96 1010.1
20260507160005 68 253 1.0 4.0 0.05 1.82 1.09 97 1009.5
20260507155435 68 247 1.0 5.0 0.06 1.82 1.09 97 1009.3
20260507154504 68 290 1.0 2.0 0.06 1.82 1.09 98 1009.5
20260507153604 66 93 0.0 3.0 0.06 1.81 1.08 97 1008.8
20260507152705 66 298 2.0 5.0 0.05 1.78 1.05 97 1010.2
20260507151811 66 263 0.0 1.0 0.04 1.77 1.04 97 1009.7
20260507150904 66 202 0.0 2.0 0.05 1.77 1.04 97 1009.2
20260507150026 66 108 0.0 1.0 0.06 1.77 1.04 97 1009.2
20260507145404 66 123 0.0 3.0 0.13 1.76 1.03 97 1009.4
20260507144525 66 122 0.0 3.0 0.24 1.76 1.03 98 1009.3
20260507143604 65 268 1.0 3.0 0.33 1.75 1.02 97 1009.8
20260507142727 65 103 1.0 3.0 0.36 1.73 1.00 97 1009.1
20260507141804 65 116 1.0 3.0 0.39 1.73 1.00 97 1009.6
20260507140904 65 76 0.0 2.0 0.40 1.72 0.99 97 1009.9
20260507140006 65 325 1.0 4.0 0.45 1.71 0.98 97 1010.2
20260507135408 65 314 2.0 6.0 0.39 1.63 0.90 97 1010.6
20260507134505 66 295 3.0 8.0 0.33 1.52 0.79 97 1010.2
20260507133625 67 297 2.0 5.0 0.26 1.42 0.69 97 1010.1
20260507132727 67 353 0.0 1.0 0.28 1.37 0.64 98 1009.7
20260507131805 67 28 0.0 1.0 0.36 1.34 0.61 98 1009.3
20260507130925 67 330 0.0 1.0 0.39 1.32 0.59 98 1009.4
20260507130034 66 309 0.0 1.0 0.33 1.26 0.54 98 1009.7
20260507125404 66 307 0.0 2.0 0.31 1.24 0.51 98 1009.7
20260507124505 66 301 1.0 2.0 0.26 1.19 0.46 97 1009.9
20260507123605 66 281 0.0 1.0 0.23 1.16 0.43 97 1009.7
20260507122726 66 317 1.0 3.0 0.16 1.09 0.36 97 1009.6
20260507121803 66 317 1.0 3.0 0.05 0.98 0.25 97 1009.9
20260507120905 66 311 0.0 3.0 0.01 0.93 0.20 97 1009.4
20260507120016 66 269 0.0 2.0 0.02 0.93 0.20 97 1009.3
20260507115404 66 297 0.0 1.0 0.03 0.93 0.20 97 1009.0
20260507114504 66 93 0.0 4.0 0.05 0.93 0.20 97 1008.9
20260507113604 66 143 1.0 5.0 0.07 0.93 0.20 97 1008.6
20260507112724 66 151 1.0 5.0 0.08 0.93 0.20 97 1008.7
20260507111804 66 135 1.0 7.0 0.08 0.93 0.20 97 1008.8
20260507110904 66 152 3.0 9.0 0.08 0.92 0.19 97 1009.2
20260507110015 66 130 2.0 10.0 0.09 0.91 0.18 98 1009.5
20260507105406 66 133 1.0 4.0 0.08 0.90 0.17 98 1009.7
20260507104504 66 136 2.0 13.0 0.09 0.88 0.16 98 1009.8
20260507103604 66 134 1.0 6.0 0.07 0.86 0.13 98 1010.0
20260507102705 66 140 1.0 6.0 0.06 0.85 0.12 98 1010.1
20260507101804 66 133 1.0 5.0 0.06 0.85 0.12 98 1010.1
20260507100904 65 104 0.0 1.0 0.05 0.84 0.11 97 1009.8
20260507100004 65 124 0.0 1.0 0.03 0.82 0.09 97 1009.9
20260507095404 65 110 0.0 1.0 0.03 0.82 0.09 97 1009.9
20260507094504 65 99 0.0 2.0 0.01 0.79 0.06 97 1009.9
20260507093603 65 145 0.0 1.0 0.02 0.79 0.06 97 1010.1
20260507092704 65 114 0.0 1.0 0.02 0.79 0.06 97 1010.1
20260507091804 65 169 0.0 1.0 0.02 0.79 0.06 97 1010.3
20260507090904 65 275 0.0 1.0 0.02 0.79 0.06 97 1010.6
20260507090032 65 275 0.0 1.0 0.03 0.79 0.06 97 1010.6
20260507085405 65 309 0.0 1.0 0.03 0.79 0.06 97 1010.5
20260507084505 65 0 0.0 0.0 0.02 0.78 0.05 97 1010.6
20260507083604 65 0 0.0 0.0 0.01 0.77 0.04 97 1010.6
20260507082704 65 0 0.0 0.0 0.01 0.77 0.04 97 1010.6
20260507081804 65 311 0.0 1.0 0.01 0.77 0.04 97 1010.7
20260507080904 65 318 0.0 2.0 0.01 0.77 0.04 97 1010.5
20260507080017 65 301 0.0 2.0 0.01 0.76 0.03 97 1010.2
20260507075405 65 289 0.0 3.0 0.01 0.76 0.03 97 1010.4
20260507074525 65 302 1.0 4.0 0.01 0.76 0.03 97 1010.7
20260507073604 65 296 2.0 3.0 0.01 0.76 0.03 97 1010.8
20260507072704 65 283 1.0 3.0 0.01 0.76 0.03 97 1010.9
20260507071804 66 290 2.0 6.0 0.01 0.76 0.03 97 1010.9
20260507070904 66 305 3.0 6.0 0.01 0.76 0.03 97 1011.0
20260507070026 66 297 2.0 6.0 0.00 0.75 0.02 97 1011.2
20260507065405 66 297 2.0 4.0 0.00 0.75 0.02 97 1011.3
20260507064504 66 299 1.0 4.0 0.00 0.75 0.02 97 1011.3
20260507063607 66 293 1.0 4.0 0.00 0.75 0.02 97 1011.2
20260507062714 66 289 2.0 4.0 0.00 0.75 0.02 97 1011.3
20260507061804 66 293 2.0 3.0 0.00 0.75 0.02 97 1011.5
20260507060905 66 305 1.0 3.0 0.00 0.75 0.02 97 1011.4
20260507060005 66 306 0.0 2.0 0.00 0.75 0.02 97 1011.1
20260507055424 66 266 0.0 1.0 0.00 0.75 0.02 97 1011.1
20260507054525 66 0 0.0 0.0 0.00 0.75 0.02 97 1010.9
20260507053604 66 144 0.0 1.0 0.01 0.75 0.02 97 1011.0
20260507052704 66 128 0.0 1.0 0.01 0.75 0.02 96 1011.1
20260507051805 65 128 0.0 1.0 0.01 0.75 0.02 96 1011.0
20260507050904 65 128 0.0 1.0 0.01 0.75 0.02 96 1011.0
20260507050006 65 126 0.0 1.0 0.02 0.75 0.02 96 1010.8
20260507045405 65 125 0.0 2.0 0.05 0.75 0.02 96 1010.9
20260507044504 65 0 0.0 0.0 0.07 0.75 0.02 96 1011.3
20260507043604 65 321 0.0 2.0 0.11 0.74 0.01 96 1011.8
20260507042704 65 318 2.0 5.0 0.20 0.74 0.01 96 1012.0
20260507041805 66 322 1.0 3.0 0.27 0.74 0.01 96 1011.6
20260507040904 66 113 2.0 7.0 0.30 0.74 0.01 96 1011.6
20260507040004 66 140 1.0 6.0 0.33 0.73 0.00 96 1012.0
20260507035404 65 134 1.0 5.0 0.33 0.70 0.70 95 1012.4
20260507034504 66 119 2.0 7.0 0.37 0.68 0.68 95 1012.2
20260507033613 66 115 0.0 4.0 0.42 0.63 0.63 95 1013.4
20260507032703 66 319 1.0 3.0 0.38 0.54 0.54 95 1013.6
20260507031804 66 313 0.0 2.0 0.34 0.47 0.47 95 1013.7
20260507030903 66 117 1.0 4.0 0.32 0.44 0.44 95 1013.0
20260507030005 66 317 1.0 3.0 0.29 0.40 0.40 94 1013.8
20260507025404 66 120 0.0 3.0 0.28 0.37 0.37 94 1014.0
20260507024504 66 300 0.0 3.0 0.24 0.31 0.31 94 1013.7
20260507023618 67 297 2.0 7.0 0.17 0.20 0.20 94 1014.4
20260507022725 67 296 2.0 6.0 0.15 0.16 0.17 93 1014.2
20260507021825 67 292 3.0 9.0 0.13 0.13 0.13 93 1013.6
20260507020926 68 309 4.0 9.0 0.12 0.12 0.12 92 1013.2
20260507020004 69 295 3.0 9.0 0.11 0.11 0.11 92 1013.0
20260507015404 70 312 2.0 5.0 0.09 0.09 0.09 91 1012.5
20260507014504 70 319 3.0 8.0 0.07 0.07 0.07 89 1012.2
20260507013603 71 320 2.0 5.0 0.03 0.03 0.03 85 1012.1
20260507012704 74 265 0.0 2.0 0.01 0.01 0.01 82 1011.8
20260507011804 77 356 0.0 1.0 0.00 0.00 0.00 75 1010.9
20260507010904 79 84 0.0 2.0 0.00 0.00 0.00 64 1010.8
20260507010004 79 347 0.0 2.0 0.00 0.00 0.00 64 1010.7
20260507005404 79 206 0.0 2.0 0.00 0.00 0.00 63 1010.6
20260507004504 80 129 0.0 3.0 0.00 0.00 0.00 62 1010.5
20260507003625 80 125 0.0 3.0 0.00 0.00 0.00 61 1010.6
20260507002726 80 250 0.0 2.0 0.00 0.00 0.00 61 1010.7
20260507001803 80 217 0.0 3.0 0.00 0.00 0.00 60 1010.6
20260507000905 80 62 1.0 3.0 0.00 0.00 0.00 60 1010.8
20260507000004 81 105 0.0 3.0 0.00 0.00 0.00 60 1010.8
20260506235426 81 152 0.0 3.0 0.00 0.00 0.00 60 1010.6
20260506234503 81 124 1.0 5.0 0.00 0.00 0.00 60 1010.6
20260506233604 81 118 1.0 3.0 0.00 0.00 0.00 60 1010.6
20260506232725 82 115 1.0 2.0 0.00 0.00 0.00 60 1010.6
20260506231804 82 129 1.0 5.0 0.00 0.00 0.00 59 1010.7
20260506230904 83 156 1.0 4.0 0.00 0.00 0.00 57 1010.7
20260506230025 84 190 1.0 4.0 0.00 0.00 0.00 56 1010.8
20260506225403 85 173 1.0 4.0 0.00 0.00 0.00 55 1010.7
20260506224504 85 178 2.0 8.0 0.00 0.00 0.00 54 1010.6
20260506223604 86 157 2.0 6.0 0.00 0.00 0.00 53 1010.7
20260506222704 86 132 2.0 8.0 0.00 0.00 0.00 55 1010.8
20260506221824 87 137 1.0 6.0 0.00 0.00 0.00 55 1010.9
20260506221011 86 199 1.0 4.0 0.00 0.00 0.00 54 1011.0
20260506220005 85 257 2.0 9.0 0.00 0.00 0.00 56 1011.0
20260506215405 86 262 2.0 9.0 0.00 0.00 0.00 54 1011.1
20260506214504 86 278 2.0 5.0 0.00 0.00 0.00 53 1011.2
20260506213624 86 288 2.0 6.0 0.00 0.00 0.00 54 1011.2
20260506212705 86 276 1.0 4.0 0.00 0.00 0.00 54 1011.4
20260506211804 85 247 2.0 5.0 0.00 0.00 0.00 55 1011.3